LOG772 EGPH-EGAA

Flight info

Callsign LOG772
Flight time 0h 44m
Altitude 22000
Route TLA DCT TRN P600 BLACA DCT BELZU
Aircraft SF34/M-SDFGR/S

Departure

Time 2026-05-07 21:24
Airport Edinburgh Airport (EGPH)

Arrival

Time 2026-05-07 22:09
Airport Belfast International Airport (EGAA)
Time Latitude Longitude Altitude Speed Heading
2026-05-07 21:08 55.94831 -3.35810 112 ft 0 kts 208°
2026-05-07 21:12 55.94831 -3.35809 112 ft 0 kts 208°
2026-05-07 21:15 55.94832 -3.35809 112 ft 0 kts 208°
2026-05-07 21:16 55.94841 -3.35800 110 ft 4 kts 210°
2026-05-07 21:16 55.94864 -3.35775 111 ft 4 kts 217°
2026-05-07 21:16 55.94870 -3.35766 111 ft 0 kts 222°
2026-05-07 21:16 55.94886 -3.35732 112 ft 4 kts 257°
2026-05-07 21:17 55.94885 -3.35705 110 ft 1 kts 298°
2026-05-07 21:17 55.94884 -3.35701 111 ft 0 kts 298°
2026-05-07 21:19 55.94884 -3.35700 111 ft 0 kts 298°
2026-05-07 21:20 55.94918 -3.35811 112 ft 14 kts 305°
2026-05-07 21:21 55.94979 -3.35862 112 ft 13 kts 10°
2026-05-07 21:21 55.95045 -3.35799 112 ft 13 kts 28°
2026-05-07 21:21 55.95120 -3.35872 112 ft 11 kts 300°
2026-05-07 21:21 55.95202 -3.35979 112 ft 11 kts 337°
2026-05-07 21:22 55.95241 -3.35961 111 ft 8 kts 50°
2026-05-07 21:22 55.95292 -3.35812 112 ft 22 kts 59°
2026-05-07 21:22 55.95368 -3.35584 111 ft 15 kts 59°
2026-05-07 21:22 55.95403 -3.35481 111 ft 0 kts 58°
2026-05-07 21:23 55.95416 -3.35447 112 ft 11 kts 52°
2026-05-07 21:23 55.95522 -3.35465 111 ft 23 kts 329°
2026-05-07 21:23 55.95558 -3.35609 107 ft 4 kts 236°
2026-05-07 21:24 55.95546 -3.35644 108 ft 21 kts 241°
2026-05-07 21:24 55.95330 -3.36277 106 ft 96 kts 238°
2026-05-07 21:24 55.94896 -3.37557 275 ft 144 kts 236°
2026-05-07 21:24 55.94347 -3.39224 785 ft 170 kts 237°
2026-05-07 21:25 55.93706 -3.41087 1483 ft 180 kts 233°
2026-05-07 21:25 55.93021 -3.42941 2315 ft 178 kts 235°
2026-05-07 21:25 55.92409 -3.44793 3282 ft 171 kts 238°
2026-05-07 21:25 55.91776 -3.46617 4062 ft 176 kts 237°
2026-05-07 21:26 55.91124 -3.48488 4862 ft 179 kts 237°
2026-05-07 21:26 55.90463 -3.50397 5664 ft 182 kts 237°
2026-05-07 21:26 55.89795 -3.52330 6476 ft 184 kts 237°
2026-05-07 21:26 55.89121 -3.54284 7252 ft 186 kts 237°
2026-05-07 21:27 55.88438 -3.56257 8045 ft 188 kts 237°
2026-05-07 21:27 55.87573 -3.57966 8768 ft 189 kts 212°
2026-05-07 21:27 55.86312 -3.58718 9391 ft 196 kts 189°
2026-05-07 21:27 55.84942 -3.58354 10045 ft 206 kts 163°
2026-05-07 21:28 55.83778 -3.56774 10639 ft 220 kts 134°
2026-05-07 21:28 55.83099 -3.54272 11201 ft 227 kts 121°
2026-05-07 21:28 55.82095 -3.52268 11775 ft 213 kts 157°
2026-05-07 21:28 55.80702 -3.51662 12328 ft 206 kts 179°
2026-05-07 21:29 55.79268 -3.51237 12935 ft 212 kts 171°
2026-05-07 21:29 55.77856 -3.50433 13817 ft 214 kts 166°
2026-05-07 21:29 55.76438 -3.49623 14605 ft 215 kts 169°
2026-05-07 21:29 55.74996 -3.48873 15381 ft 217 kts 169°
2026-05-07 21:30 55.73544 -3.48064 16165 ft 220 kts 169°
2026-05-07 21:30 55.72071 -3.47267 16881 ft 223 kts 169°
2026-05-07 21:30 55.70575 -3.46454 17629 ft 226 kts 169°
2026-05-07 21:30 55.69063 -3.45630 18341 ft 228 kts 169°
2026-05-07 21:31 55.67537 -3.44802 18947 ft 231 kts 169°
2026-05-07 21:31 55.65994 -3.43975 19547 ft 233 kts 169°
2026-05-07 21:31 55.64455 -3.43142 20122 ft 236 kts 168°
2026-05-07 21:31 55.62862 -3.42262 20695 ft 238 kts 169°
2026-05-07 21:32 55.61270 -3.41408 21267 ft 240 kts 169°
2026-05-07 21:32 55.59685 -3.40549 21826 ft 243 kts 169°
2026-05-07 21:32 55.58063 -3.39673 22388 ft 245 kts 169°
2026-05-07 21:32 55.56424 -3.38790 22934 ft 248 kts 169°
2026-05-07 21:33 55.54771 -3.37895 23482 ft 249 kts 169°
2026-05-07 21:33 55.53085 -3.37448 23763 ft 243 kts 189°
2026-05-07 21:33 55.51471 -3.38202 23936 ft 240 kts 206°
2026-05-07 21:33 55.50105 -3.39867 24013 ft 240 kts 224°
2026-05-07 21:34 55.49135 -3.42315 24037 ft 244 kts 242°
2026-05-07 21:34 55.48703 -3.45181 24053 ft 247 kts 257°
2026-05-07 21:34 55.48363 -3.48142 24052 ft 245 kts 252°
2026-05-07 21:34 55.47985 -3.50803 24042 ft 203 kts 252°
2026-05-07 21:35 55.47700 -3.53093 24013 ft 181 kts 253°
2026-05-07 21:35 55.47436 -3.55212 23962 ft 178 kts 251°
2026-05-07 21:35 55.47149 -3.57445 23686 ft 202 kts 253°
2026-05-07 21:35 55.46827 -3.60039 23439 ft 228 kts 254°
2026-05-07 21:36 55.46474 -3.62868 23170 ft 241 kts 254°
2026-05-07 21:36 55.46097 -3.65861 22917 ft 258 kts 254°
2026-05-07 21:36 55.45698 -3.69018 22664 ft 268 kts 254°
2026-05-07 21:36 55.45290 -3.72257 22413 ft 273 kts 254°
2026-05-07 21:37 55.44899 -3.75364 22152 ft 251 kts 254°
2026-05-07 21:37 55.44525 -3.78289 22027 ft 243 kts 253°
2026-05-07 21:37 55.44151 -3.81199 21995 ft 245 kts 253°
2026-05-07 21:37 55.43779 -3.84132 21974 ft 246 kts 253°
2026-05-07 21:38 55.43403 -3.87072 21973 ft 246 kts 253°
2026-05-07 21:38 55.43026 -3.90009 21971 ft 246 kts 253°
2026-05-07 21:38 55.42651 -3.92942 21971 ft 245 kts 253°
2026-05-07 21:38 55.42275 -3.95858 21972 ft 244 kts 253°
2026-05-07 21:39 55.41900 -3.98767 21971 ft 244 kts 253°
2026-05-07 21:39 55.41525 -4.01673 21965 ft 244 kts 253°
2026-05-07 21:39 55.41148 -4.04585 21968 ft 244 kts 253°
2026-05-07 21:39 55.40770 -4.07492 21961 ft 244 kts 253°
2026-05-07 21:40 55.40393 -4.10402 21963 ft 244 kts 253°
2026-05-07 21:40 55.40014 -4.13313 21961 ft 244 kts 253°
2026-05-07 21:40 55.39640 -4.16184 21957 ft 234 kts 253°
2026-05-07 21:40 55.39312 -4.18755 21942 ft 198 kts 252°
2026-05-07 21:41 55.38977 -4.21189 21939 ft 217 kts 252°
2026-05-07 21:41 55.38632 -4.23848 21940 ft 226 kts 254°
2026-05-07 21:41 55.38301 -4.26577 21942 ft 230 kts 253°
2026-05-07 21:41 55.37923 -4.29318 21942 ft 232 kts 253°
2026-05-07 21:42 55.37559 -4.32095 21941 ft 234 kts 253°
2026-05-07 21:42 55.37193 -4.34888 21942 ft 235 kts 253°
2026-05-07 21:42 55.36819 -4.37687 21942 ft 235 kts 253°
2026-05-07 21:42 55.36449 -4.40490 21941 ft 236 kts 253°
2026-05-07 21:43 55.36075 -4.43298 21960 ft 236 kts 253°
2026-05-07 21:43 55.35701 -4.46107 21948 ft 236 kts 253°
2026-05-07 21:43 55.35328 -4.48913 21946 ft 236 kts 253°
2026-05-07 21:43 55.34952 -4.51713 21947 ft 236 kts 253°
2026-05-07 21:44 55.34577 -4.54514 21947 ft 235 kts 253°
2026-05-07 21:44 55.34205 -4.57306 21945 ft 234 kts 253°
2026-05-07 21:44 55.33836 -4.60073 21942 ft 231 kts 253°
2026-05-07 21:44 55.33466 -4.62802 21941 ft 228 kts 253°
2026-05-07 21:45 55.33102 -4.65494 21934 ft 225 kts 253°
2026-05-07 21:45 55.32739 -4.68161 21933 ft 224 kts 253°
2026-05-07 21:45 55.32381 -4.70813 21943 ft 223 kts 253°
2026-05-07 21:45 55.32021 -4.73462 21941 ft 223 kts 253°
2026-05-07 21:46 55.31662 -4.76104 21943 ft 223 kts 252°
2026-05-07 21:46 55.31235 -4.78695 21942 ft 218 kts 241°
2026-05-07 21:46 55.30234 -4.80581 21943 ft 218 kts 211°
2026-05-07 21:46 55.28763 -4.81252 21945 ft 223 kts 189°
2026-05-07 21:47 55.27246 -4.81852 21963 ft 219 kts 206°
2026-05-07 21:47 55.25926 -4.83082 21963 ft 218 kts 212°
2026-05-07 21:47 55.24584 -4.84401 21961 ft 218 kts 210°
2026-05-07 21:47 55.23231 -4.85550 21955 ft 219 kts 208°
2026-05-07 21:48 55.21848 -4.86749 21957 ft 219 kts 210°
2026-05-07 21:48 55.20493 -4.87958 21958 ft 219 kts 209°
2026-05-07 21:48 55.19128 -4.89145 21958 ft 219 kts 209°
2026-05-07 21:48 55.17782 -4.90325 21959 ft 219 kts 209°
2026-05-07 21:49 55.16419 -4.91520 21939 ft 219 kts 209°
2026-05-07 21:49 55.15055 -4.92711 21951 ft 219 kts 209°
2026-05-07 21:49 55.13688 -4.93908 21951 ft 220 kts 209°
2026-05-07 21:49 55.12318 -4.95105 21958 ft 220 kts 209°
2026-05-07 21:50 55.10949 -4.96299 21960 ft 220 kts 209°
2026-05-07 21:50 55.09584 -4.97490 21959 ft 219 kts 209°
2026-05-07 21:50 55.08218 -4.98680 21959 ft 219 kts 209°
2026-05-07 21:50 55.06854 -4.99868 21957 ft 219 kts 209°
2026-05-07 21:51 55.05489 -5.01054 21960 ft 219 kts 209°
2026-05-07 21:51 55.04124 -5.02243 21959 ft 219 kts 209°
2026-05-07 21:51 55.02756 -5.03426 21956 ft 224 kts 208°
2026-05-07 21:51 55.01285 -5.04663 21810 ft 243 kts 208°
2026-05-07 21:52 54.99739 -5.06029 21692 ft 254 kts 209°
2026-05-07 21:52 54.98135 -5.07425 21469 ft 260 kts 208°
2026-05-07 21:52 54.96506 -5.08822 21218 ft 261 kts 208°
2026-05-07 21:52 54.94880 -5.10238 20972 ft 262 kts 208°
2026-05-07 21:53 54.93247 -5.11647 20722 ft 262 kts 208°
2026-05-07 21:53 54.91614 -5.13054 20472 ft 262 kts 208°
2026-05-07 21:53 54.89984 -5.14464 20225 ft 262 kts 208°
2026-05-07 21:53 54.88358 -5.15884 19960 ft 260 kts 212°
2026-05-07 21:54 54.87077 -5.18044 19717 ft 260 kts 238°
2026-05-07 21:54 54.86566 -5.21050 19475 ft 266 kts 264°
2026-05-07 21:54 54.86680 -5.24260 19229 ft 264 kts 264°
2026-05-07 21:54 54.86232 -5.27294 18992 ft 259 kts 244°
2026-05-07 21:55 54.85448 -5.30114 18751 ft 260 kts 244°
2026-05-07 21:55 54.84797 -5.33049 18514 ft 262 kts 249°
2026-05-07 21:55 54.84247 -5.36038 18274 ft 247 kts 250°
2026-05-07 21:55 54.83709 -5.38720 17860 ft 230 kts 247°
2026-05-07 21:56 54.83156 -5.41301 17443 ft 227 kts 248°
2026-05-07 21:56 54.82648 -5.43855 17056 ft 227 kts 248°
2026-05-07 21:56 54.82109 -5.46471 16577 ft 228 kts 248°
2026-05-07 21:56 54.81572 -5.49075 16056 ft 230 kts 248°
2026-05-07 21:57 54.81036 -5.51693 15540 ft 231 kts 248°
2026-05-07 21:57 54.80496 -5.54315 15039 ft 231 kts 248°
2026-05-07 21:57 54.79957 -5.56935 14544 ft 230 kts 248°
2026-05-07 21:57 54.79426 -5.59505 14066 ft 229 kts 249°
2026-05-07 21:58 54.78884 -5.62132 13554 ft 228 kts 248°
2026-05-07 21:58 54.78351 -5.64710 13018 ft 226 kts 248°
2026-05-07 21:58 54.77820 -5.67267 12487 ft 225 kts 248°
2026-05-07 21:58 54.77468 -5.69846 11968 ft 226 kts 266°
2026-05-07 21:59 54.77746 -5.72541 11464 ft 230 kts 282°
2026-05-07 21:59 54.78258 -5.75169 10949 ft 230 kts 285°
2026-05-07 21:59 54.78800 -5.77775 10451 ft 230 kts 285°
2026-05-07 21:59 54.79346 -5.80374 9958 ft 229 kts 285°
2026-05-07 22:00 54.79887 -5.82961 9433 ft 227 kts 285°
2026-05-07 22:00 54.80426 -5.85523 8899 ft 225 kts 285°
2026-05-07 22:00 54.80957 -5.88051 8371 ft 222 kts 285°
2026-05-07 22:00 54.81481 -5.90548 7852 ft 219 kts 285°
2026-05-07 22:01 54.81999 -5.93018 7344 ft 217 kts 285°
2026-05-07 22:01 54.82501 -5.95422 6859 ft 214 kts 285°
2026-05-07 22:01 54.83006 -5.97839 6356 ft 212 kts 285°
2026-05-07 22:01 54.83504 -6.00231 5833 ft 210 kts 285°
2026-05-07 22:02 54.83992 -6.02601 5316 ft 206 kts 284°
2026-05-07 22:02 54.84015 -6.04984 4986 ft 198 kts 248°
2026-05-07 22:02 54.83120 -6.06890 4967 ft 215 kts 214°
2026-05-07 22:02 54.81657 -6.07570 4967 ft 227 kts 181°
2026-05-07 22:03 54.80110 -6.06917 4972 ft 232 kts 165°
2026-05-07 22:03 54.78665 -6.05986 4823 ft 205 kts 163°
2026-05-07 22:03 54.77440 -6.04815 4449 ft 206 kts 140°
2026-05-07 22:03 54.76803 -6.02713 4071 ft 197 kts 106°
2026-05-07 22:04 54.76546 -6.00241 3693 ft 213 kts 104°
2026-05-07 22:04 54.76184 -5.98679 3459 ft 211 kts 128°
2026-05-07 22:04 54.75074 -5.97165 3116 ft 202 kts 165°
2026-05-07 22:04 54.73750 -5.97186 3003 ft 187 kts 202°
2026-05-07 22:05 54.72595 -5.98143 2972 ft 176 kts 209°
2026-05-07 22:05 54.71774 -5.99430 2909 ft 155 kts 240°
2026-05-07 22:05 54.71278 -6.01073 2709 ft 154 kts 243°
2026-05-07 22:05 54.70810 -6.02733 2501 ft 154 kts 244°
2026-05-07 22:06 54.70356 -6.04400 2292 ft 152 kts 245°
2026-05-07 22:06 54.69909 -6.06056 2081 ft 152 kts 245°
2026-05-07 22:06 54.69470 -6.07716 1874 ft 152 kts 245°
2026-05-07 22:06 54.69026 -6.09379 1656 ft 153 kts 247°
2026-05-07 22:07 54.68628 -6.10976 1464 ft 142 kts 248°
2026-05-07 22:07 54.68227 -6.12474 1271 ft 132 kts 243°
2026-05-07 22:07 54.67823 -6.13893 1037 ft 131 kts 245°
2026-05-07 22:07 54.67440 -6.15309 900 ft 129 kts 245°
2026-05-07 22:08 54.67090 -6.16658 728 ft 119 kts 245°
2026-05-07 22:08 54.66742 -6.17936 564 ft 115 kts 244°
2026-05-07 22:08 54.66406 -6.19163 362 ft 108 kts 244°
2026-05-07 22:08 54.66096 -6.20317 279 ft 97 kts 245°
2026-05-07 22:09 54.65873 -6.21131 268 ft 19 kts 243°
2026-05-07 22:09 54.65899 -6.21354 268 ft 9 kts 336°
2026-05-07 22:09 54.65942 -6.21386 268 ft 7 kts 330°
2026-05-07 22:09 54.65959 -6.21488 268 ft 7 kts 239°
2026-05-07 22:10 54.65974 -6.21603 268 ft 12 kts 352°
2026-05-07 22:10 54.66010 -6.21635 268 ft 0 kts 328°
2026-05-07 22:10 54.66009 -6.21723 268 ft 10 kts 248°
2026-05-07 22:10 54.65996 -6.21775 268 ft 0 kts 243°